Weather History for Cecil Field, FL

Change the Weather History Date:

Sunday, July 21, 2013

  Actual Average (KJAX) Record (KJAX)
Temperature  
Mean Temperature 80 °F 82 °F  
Max Temperature 89 °F 92 °F 102 °F (1942)
Min Temperature 71 °F 73 °F 66 °F (1929)
Degree Days  
Heating Degree Days 0 0  
Month to date heating degree days 0  
Since 1 June heating degree days 0  
Since 1 July heating degree days 0  
Cooling Degree Days 15 18  
Month to date cooling degree days 360  
Year to date cooling degree days 1293  
Since 1 June cooling degree days 809  
Growing Degree Days 30 (Base 50)    
Moisture  
Dew Point 74 °F    
Average Humidity 94    
Maximum Humidity 100    
Minimum Humidity 62    
Precipitation  
Precipitation 0.05 in 0.23 in 1.80 in (1945)
Month to date precipitation 4.43  
Year to date precipitation 26.44  
Snow  
Snow 0.00 in 0.00 in 0.00 in (2002)
Month to date snowfall 0.0  
Since 1 June snowfall 0.0  
Since 1 July snowfall 0.0  
Snow Depth -    
Sea Level Pressure  
Sea Level Pressure 30.07 in    
Wind  
Wind Speed 3 mph (SSW)    
Max Wind Speed 23 mph    
Max Gust Speed 44 mph    
Visibility 9 miles    
Events Rain    
T = Trace of Precipitation, MM = Missing Value Source: NWS Daily Summary

Daily Weather History Graph

Daily Weather History Graph

Search for Another Location

Airport:

Trip Planner

Search our weather history database for the weather conditions in past years. The results will help you decide how hot, cold, wet, or windy it might be!

Date:

Astronomy

Jul. 21, 2013 Rise Set
Actual Time 6:39 AM EDT 8:27 PM EDT
Civil Twilight 6:13 AM EDT 8:54 PM EDT
Nautical Twilight 5:40 AM EDT 9:26 PM EDT
Astronomical Twilight 5:06 AM EDT 10:00 PM EDT
Moon 7:27 PM EDT (7/21) 5:22 AM EDT (7/21)
Length of Visible Light 14h 41m
Length of Day
13h 48m
Waxing Gibbous, 98% of the Moon is Illuminated
Jul 21
Waxing Gibbous
Jul 22
Full
Jul 29
Last Quarter
Aug 6
New
Aug 14
First Quarter

Hourly Weather History & Observations

Time (EDT) Temp. Heat Index Dew Point Humidity Pressure Visibility Wind Dir Wind Speed Gust Speed Precip Events Conditions
12:15 AM 73.4 °F - 73.4 °F 100% 30.10 in 10.0 mi Calm Calm - N/A   Clear
12:35 AM 73.4 °F - 73.4 °F 100% 30.10 in 10.0 mi WSW 4.6 mph - N/A   Clear
12:55 AM 73.4 °F - 73.4 °F 100% 30.09 in 10.0 mi WSW 4.6 mph - N/A   Clear
1:15 AM 73.4 °F - 73.4 °F 100% 30.09 in 10.0 mi WSW 4.6 mph - N/A   Clear
1:35 AM 73.4 °F - 73.4 °F 100% 30.09 in 10.0 mi WSW 3.5 mph - N/A   Scattered Clouds
1:55 AM 73.4 °F - 73.4 °F 100% 30.09 in 8.0 mi SW 9.2 mph - N/A Rain Light Rain
2:15 AM 73.4 °F - 71.6 °F 94% 30.08 in 10.0 mi SW 5.8 mph - N/A Rain Light Rain
2:35 AM 71.6 °F - 71.6 °F 100% 30.08 in 5.0 mi WSW 5.8 mph - 0.01 in Rain Light Rain
2:55 AM 71.6 °F - 71.6 °F 100% 30.07 in 5.0 mi West 3.5 mph - 0.02 in Rain Light Rain
3:15 AM 71.6 °F - 71.6 °F 100% 30.06 in 5.0 mi Calm Calm - 0.01 in Rain Light Rain
3:35 AM 71.6 °F - 71.6 °F 100% 30.05 in 7.0 mi Calm Calm - 0.02 in Rain Light Rain
3:55 AM 71.6 °F - 71.6 °F 100% 30.04 in 8.0 mi Calm Calm - 0.03 in Rain Light Rain
4:15 AM 71.6 °F - 71.6 °F 100% 30.04 in 9.0 mi Calm Calm - N/A Rain Light Rain
4:35 AM 71.6 °F - 71.6 °F 100% 30.04 in 10.0 mi SSE 3.5 mph - N/A   Clear
4:55 AM 71.6 °F - 71.6 °F 100% 30.05 in 10.0 mi SSE 4.6 mph - N/A   Clear
5:15 AM 71.6 °F - 71.6 °F 100% 30.05 in 10.0 mi SSE 3.5 mph - N/A   Clear
5:35 AM 71.6 °F - 71.6 °F 100% 30.05 in 10.0 mi SSE 4.6 mph - N/A   Clear
5:55 AM 71.6 °F - 71.6 °F 100% 30.06 in 10.0 mi SSE 3.5 mph - N/A   Clear
6:15 AM 71.6 °F - 71.6 °F 100% 30.07 in 10.0 mi Calm Calm - N/A   Clear
6:35 AM 71.6 °F - 71.6 °F 100% 30.07 in 9.0 mi Calm Calm - N/A   Clear
6:50 AM 71.6 °F - 71.6 °F 100% 30.07 in 7.0 mi Calm Calm - N/A   Clear
7:50 AM 71.6 °F - 71.6 °F 100% 30.09 in 10.0 mi Calm Calm - N/A   Mostly Cloudy
8:50 AM 73.4 °F - 73.4 °F 100% 30.10 in 10.0 mi Calm Calm - N/A   Clear
9:50 AM 77.0 °F - 73.4 °F 89% 30.11 in 10.0 mi Calm Calm - N/A   Clear
10:50 AM 80.6 °F 86.2 °F 75.2 °F 84% 30.12 in 10.0 mi Calm Calm - N/A   Scattered Clouds
11:50 AM 84.2 °F 92.3 °F 75.2 °F 74% 30.12 in 10.0 mi SW 6.9 mph - N/A   Mostly Cloudy
12:50 PM 86.0 °F 95.1 °F 75.2 °F 70% 30.09 in 10.0 mi West 11.5 mph - N/A   Scattered Clouds
1:50 PM 89.6 °F 99.8 °F 75.2 °F 62% 30.06 in 10.0 mi West 11.5 mph - N/A   Scattered Clouds
2:50 PM 77.0 °F - 75.2 °F 94% 30.07 in 4.0 mi WSW 23.0 mph 43.7 mph N/A Rain Rain
3:50 PM 80.6 °F 86.2 °F 75.2 °F 84% 30.05 in 10.0 mi SSW 8.1 mph - N/A   Mostly Cloudy
4:50 PM 84.2 °F 92.3 °F 75.2 °F 74% 30.05 in 10.0 mi SW 8.1 mph - N/A   Mostly Cloudy
5:50 PM 82.4 °F 89.5 °F 75.2 °F 79% 30.04 in 10.0 mi SW 8.1 mph - N/A   Mostly Cloudy
6:50 PM 84.2 °F 92.3 °F 75.2 °F 74% 30.04 in 10.0 mi SW 8.1 mph - N/A   Mostly Cloudy
7:50 PM 82.4 °F 90.9 °F 77.0 °F 84% 30.04 in 10.0 mi Calm Calm - N/A   Scattered Clouds
8:15 PM 80.6 °F 87.1 °F 77.0 °F 89% 30.05 in 10.0 mi Calm Calm - N/A   Clear
8:35 PM 77.0 °F - 75.2 °F 94% 30.07 in 10.0 mi Calm Calm - N/A   Clear
8:55 PM 77.0 °F - 75.2 °F 94% 30.07 in 10.0 mi Calm Calm - N/A   Clear
9:15 PM 77.0 °F - 75.2 °F 94% 30.08 in 10.0 mi Calm Calm - N/A   Clear
9:35 PM 77.0 °F - 77.0 °F 100% 30.08 in 10.0 mi Calm Calm - N/A   Clear
9:55 PM 77.0 °F - 77.0 °F 100% 30.08 in 10.0 mi South 3.5 mph - N/A   Clear
10:15 PM 77.0 °F - 77.0 °F 100% 30.09 in 10.0 mi South 3.5 mph - N/A   Clear
10:35 PM 77.0 °F - 77.0 °F 100% 30.09 in 10.0 mi Calm Calm - N/A   Clear
10:55 PM 77.0 °F - 77.0 °F 100% 30.10 in 10.0 mi South 4.6 mph - N/A   Clear
11:15 PM 77.0 °F - 77.0 °F 100% 30.10 in 9.0 mi South 4.6 mph - N/A   Clear
11:35 PM 77.0 °F - 77.0 °F 100% 30.10 in 9.0 mi South 4.6 mph - N/A   Clear
11:55 PM 77.0 °F - 77.0 °F 100% 30.10 in 8.0 mi South 3.5 mph - N/A   Clear